User: anonymous   Login
Location: Nebula Knoll Observatory
(43.6666°N, 71.0000°W)
Time: 03:20:27
(UTC-04:00)
Language:

SeaSat 1 - Orbit

View from above orbital plane
View from above orbital plane
View from above satellite
View from above satellite

Ground track
Ground track

The orbit data is extracted from the following two-line orbital elements,

1 10967U 78064A   15211.76487945  .00000020  00000-0  46414-4 0  9993
2 10967 107.9936 303.6559 0002053 288.2258 071.8663 14.43418113947401
Epoch (UTC): 30 July 2015 18:21:25
Eccentricity: 0.0002053
inclination: 107.9936°
perigee height: 746 km
apogee height: 748 km
right ascension of ascending node: 303.6559°
argument of perigee: 288.2258°
revolutions per day: 14.43418113
mean anomaly at epoch: 71.8663°
orbit number at epoch: 94740

The dashed part of the orbit path shows where the satellite is in the earth's shadow,  

DLR